Weather History for Eureka Airport, NV

Change the Weather History Date:

Saturday, December 28, 2013

  Actual Average Record
Temperature  
Mean Temperature 25 °F -  
Max Temperature 42 °F - - ()
Min Temperature 8 °F - - ()
Degree Days  
Heating Degree Days 40    
Moisture  
Dew Point 16 °F    
Average Humidity 69    
Maximum Humidity 93    
Minimum Humidity 33    
Precipitation  
Precipitation 0.00 in - - ()
Sea Level Pressure  
Sea Level Pressure 30.22 in    
Wind  
Wind Speed 5 mph (SW)    
Max Wind Speed 12 mph    
Max Gust Speed -    
Visibility 10 miles    
Events      
T = Trace of Precipitation, MM = Missing Value Source: NWS Daily Summary

Daily Weather History Graph

Daily Weather History Graph

Search for Another Location

Airport:

Trip Planner

Search our weather history database for the weather conditions in past years. The results will help you decide how hot, cold, wet, or windy it might be!

Date:

Astronomy

Dec. 28, 2013 Rise Set
Actual Time 7:03 AM PST 4:27 PM PST
Civil Twilight 6:33 AM PST 4:58 PM PST
Nautical Twilight 5:59 AM PST 5:31 PM PST
Astronomical Twilight 5:27 AM PST 6:04 PM PST
Moon 2:46 AM PST (12/28) 1:21 PM PST (12/28)
Length of Visible Light 10h 24m
Length of Day
9h 23m
Waning Crescent, 18% of the Moon is Illuminated
Dec 28
Waning Crescent
Jan 1
New
Jan 7
First Quarter
Jan 15
Full
Jan 23
Last Quarter

Hourly Weather History & Observations

Time (PST) Temp. Windchill Dew Point Humidity Pressure Visibility Wind Dir Wind Speed Gust Speed Precip Events Conditions
12:05 AM 28.4 °F 20.4 °F 17.6 °F 64% 30.20 in 10.0 mi SSW 8.1 mph - N/A   Clear
12:25 AM 28.4 °F 20.4 °F 17.6 °F 64% 30.19 in 10.0 mi SSW 8.1 mph - N/A   Clear
12:45 AM 28.4 °F 23.3 °F 17.6 °F 64% 30.18 in 10.0 mi SW 4.6 mph - N/A   Clear
1:05 AM 28.4 °F 21.2 °F 17.6 °F 64% 30.17 in 10.0 mi SW 6.9 mph - N/A   Clear
1:25 AM 26.6 °F 21.2 °F 19.4 °F 74% 30.17 in 10.0 mi WSW 4.6 mph - N/A   Scattered Clouds
1:45 AM 26.6 °F 19.1 °F 17.6 °F 69% 30.17 in 10.0 mi West 6.9 mph - N/A   Mostly Cloudy
2:05 AM 28.4 °F 20.4 °F 17.6 °F 64% 30.18 in 10.0 mi South 8.1 mph - N/A   Partly Cloudy
2:25 AM 26.6 °F 17.5 °F 17.6 °F 69% 30.17 in 10.0 mi SSW 9.2 mph - N/A   Scattered Clouds
2:45 AM 26.6 °F 21.2 °F 17.6 °F 69% 30.18 in 10.0 mi South 4.6 mph - N/A   Scattered Clouds
3:05 AM 26.6 °F 22.6 °F 17.6 °F 69% 30.17 in 10.0 mi SW 3.5 mph - N/A   Scattered Clouds
3:25 AM 26.6 °F 18.2 °F 17.6 °F 69% 30.16 in 10.0 mi SW 8.1 mph - N/A   Partly Cloudy
3:40 AM 26.6 °F 19.1 °F 17.6 °F 69% 30.16 in 10.0 mi SSW 6.9 mph - N/A   Partly Cloudy
4:05 AM 26.6 °F 19.1 °F 17.6 °F 69% 30.15 in 10.0 mi SSW 6.9 mph - N/A   Scattered Clouds
4:25 AM 23.0 °F 18.4 °F 15.8 °F 74% 30.16 in 10.0 mi West 3.5 mph - N/A   Partly Cloudy
4:45 AM 19.4 °F 12.8 °F 15.8 °F 86% 30.16 in 10.0 mi NNE 4.6 mph - N/A   Partly Cloudy
5:05 AM 19.4 °F 14.3 °F 15.8 °F 86% 30.17 in 10.0 mi WNW 3.5 mph - N/A   Scattered Clouds
5:25 AM 21.2 °F 14.9 °F 15.8 °F 80% 30.16 in 10.0 mi SW 4.6 mph - N/A   Mostly Cloudy
5:45 AM 19.4 °F 11.5 °F 15.8 °F 86% 30.15 in 10.0 mi SSW 5.8 mph - N/A   Scattered Clouds
6:05 AM 19.4 °F 12.8 °F 15.8 °F 86% 30.16 in 10.0 mi SSW 4.6 mph - N/A   Mostly Cloudy
6:25 AM 21.2 °F 10.9 °F 15.8 °F 80% 30.15 in 10.0 mi SSW 9.2 mph - N/A   Partly Cloudy
6:45 AM 21.2 °F - 14.0 °F 74% 30.16 in 10.0 mi Calm Calm - N/A   Clear
7:05 AM 17.6 °F 8.2 °F 12.2 °F 79% 30.18 in 10.0 mi North 6.9 mph - N/A   Clear
7:25 AM 15.8 °F - 12.2 °F 86% 30.18 in 10.0 mi Calm Calm - N/A   Partly Cloudy
7:45 AM 15.8 °F 8.6 °F 10.4 °F 79% 30.19 in 10.0 mi SSW 4.6 mph - N/A   Partly Cloudy
8:05 AM 14.0 °F 6.5 °F 10.4 °F 86% 30.20 in 10.0 mi West 4.6 mph - N/A   Clear
8:25 AM 19.4 °F 14.3 °F 14.0 °F 80% 30.21 in 10.0 mi SSW 3.5 mph - N/A   Clear
8:45 AM 19.4 °F 14.3 °F 14.0 °F 80% 30.22 in 10.0 mi South 3.5 mph - N/A   Clear
9:05 AM 23.0 °F - 15.8 °F 74% 30.22 in 10.0 mi Calm Calm - N/A   Clear
9:25 AM 28.4 °F - 15.8 °F 59% 30.23 in 10.0 mi Calm Calm - N/A   Clear
9:45 AM 32.0 °F - 17.6 °F 55% 30.23 in 10.0 mi Calm Calm - N/A   Clear
10:05 AM 32.0 °F - 17.6 °F 55% 30.22 in 10.0 mi Calm Calm - N/A   Clear
10:25 AM 35.6 °F 32.8 °F 15.8 °F 44% 30.22 in 10.0 mi South 3.5 mph - N/A   Clear
10:45 AM 39.2 °F - 14.0 °F 36% 30.22 in 10.0 mi Calm Calm - N/A   Clear
11:05 AM 39.2 °F 35.9 °F 14.0 °F 36% 30.22 in 10.0 mi NNE 4.6 mph - N/A   Clear
11:25 AM 41.0 °F 38.0 °F 14.0 °F 33% 30.21 in 10.0 mi NE 4.6 mph - N/A   Clear
11:45 AM 41.0 °F 37.1 °F 15.8 °F 36% 30.21 in 10.0 mi NE 5.8 mph - N/A   Clear
12:05 PM 39.2 °F 35.9 °F 17.6 °F 42% 30.20 in 10.0 mi NE 4.6 mph - N/A   Clear
12:25 PM 39.2 °F 35.0 °F 17.6 °F 42% 30.20 in 10.0 mi ENE 5.8 mph - N/A   Clear
12:45 PM 41.0 °F 38.0 °F 17.6 °F 39% 30.19 in 10.0 mi ENE 4.6 mph - N/A   Clear
1:05 PM 42.8 °F 39.3 °F 21.2 °F 42% 30.19 in 10.0 mi ENE 5.8 mph - N/A   Clear
1:25 PM 41.0 °F 39.0 °F 17.6 °F 39% 30.19 in 10.0 mi NE 3.5 mph - N/A   Clear
1:45 PM 41.0 °F 39.0 °F 17.6 °F 39% 30.19 in 10.0 mi ENE 3.5 mph - N/A   Clear
2:05 PM 41.0 °F - 17.6 °F 39% 30.20 in 10.0 mi Calm Calm - N/A   Clear
2:25 PM 41.0 °F 34.7 °F 21.2 °F 45% 30.20 in 10.0 mi North 10.4 mph - N/A   Clear
2:45 PM 39.2 °F 32.5 °F 23.0 °F 52% 30.21 in 10.0 mi NNE 10.4 mph - N/A   Clear
3:05 PM 35.6 °F 28.0 °F 23.0 °F 60% 30.21 in 10.0 mi North 10.4 mph - N/A   Clear
3:25 PM 39.2 °F 33.0 °F 21.2 °F 49% 30.22 in 10.0 mi North 9.2 mph - N/A   Clear
3:45 PM 37.4 °F 32.8 °F 23.0 °F 56% 30.22 in 10.0 mi NNE 5.8 mph - N/A   Clear
4:05 PM 35.6 °F 27.5 °F 23.0 °F 60% 30.22 in 10.0 mi North 11.5 mph - N/A   Clear
4:25 PM 32.0 °F 25.6 °F 21.2 °F 64% 30.23 in 10.0 mi North 6.9 mph - N/A   Clear
4:45 PM 28.4 °F 20.4 °F 19.4 °F 69% 30.24 in 10.0 mi North 8.1 mph - N/A   Clear
5:05 PM 26.6 °F 17.5 °F 19.4 °F 74% 30.24 in 10.0 mi NNE 9.2 mph - N/A   Clear
5:25 PM 26.6 °F 20.0 °F 19.4 °F 74% 30.25 in 10.0 mi NNE 5.8 mph - N/A   Clear
5:45 PM 24.8 °F - 17.6 °F 74% 30.26 in 10.0 mi Calm Calm - N/A   Clear
6:05 PM 23.0 °F 18.4 °F 17.6 °F 80% 30.27 in 10.0 mi NE 3.5 mph - N/A   Clear
6:25 PM 21.2 °F - 15.8 °F 80% 30.27 in 10.0 mi Calm Calm - N/A   Clear
6:45 PM 23.0 °F - 17.6 °F 80% 30.27 in 10.0 mi Calm Calm - N/A   Clear
7:05 PM 17.6 °F 9.3 °F 14.0 °F 86% 30.27 in 10.0 mi West 5.8 mph - N/A   Clear
7:20 PM 17.6 °F 12.3 °F 14.0 °F 86% 30.27 in 10.0 mi West 3.5 mph - N/A   Clear
7:45 PM 15.8 °F - 12.2 °F 86% 30.28 in 10.0 mi Calm Calm - N/A   Clear
8:05 PM 15.8 °F - 14.0 °F 93% 30.29 in 10.0 mi Calm Calm - N/A   Clear
8:25 PM 14.0 °F 8.2 °F 10.4 °F 86% 30.30 in 10.0 mi South 3.5 mph - N/A   Clear
8:45 PM 14.0 °F 8.2 °F 10.4 °F 86% 30.31 in 10.0 mi South 3.5 mph - N/A   Clear
9:05 PM 14.0 °F 6.5 °F 8.6 °F 79% 30.31 in 10.0 mi SW 4.6 mph - N/A   Clear
9:25 PM 12.2 °F 6.1 °F 8.6 °F 85% 30.32 in 10.0 mi SSE 3.5 mph - N/A   Clear
9:45 PM 14.0 °F 8.2 °F 10.4 °F 86% 30.32 in 10.0 mi South 3.5 mph - N/A   Clear
10:05 PM 10.4 °F - 6.8 °F 85% 30.32 in 10.0 mi Calm Calm - N/A   Clear
10:25 PM 10.4 °F - 8.6 °F 92% 30.32 in 10.0 mi Calm Calm - N/A   Clear
10:45 PM 8.6 °F 2.0 °F 6.8 °F 92% 30.34 in 10.0 mi South 3.5 mph - N/A   Clear
11:05 PM 10.4 °F 2.2 °F 6.8 °F 85% 30.34 in 10.0 mi SSW 4.6 mph - N/A   Clear
11:25 PM 8.6 °F - 5.0 °F 85% 30.34 in 10.0 mi Calm Calm - N/A   Unknown
11:45 PM 10.4 °F 4.0 °F 6.8 °F 85% 30.34 in 10.0 mi South 3.5 mph - N/A   Clear